Regional Weather Roundup
Issued by NWS

Home | Current Version | Previous Version | Text Only | Print | Product List | Glossary On
Versions: 1 2 3 4 5 6 7 8 9 10 11 12 13 14 15 16 17 18 19 20 21 22 23 24 25 26 27
000
ASUS45 KPSR 221310
RWRAZ

ARIZONA HOURLY REGIONAL WEATHER ROUNDUP
NATIONAL WEATHER SERVICE PHOENIX AZ
600 AM MST WED NOV 22 2017

NOTE: FAIR INDICATES FEW OR NO CLOUDS BELOW 12,000 FEET WITH NO
SIGNIFICANT WEATHER AND/OR OBSTRUCTIONS TO VISIBILITY.

AZZ001>003-036-221400-
NORTHWEST ARIZONA

CITY           SKY/WX    TMP DP  RH WIND       PRES   REMARKS
BULLHEAD CITY  CLEAR     70  16  12 N21       30.14R
KINGMAN        PTCLDY    50  23  34 NE7       30.27S
$$

AZZ004>008-015-016-018-221400-
NORTH CENTRAL ARIZONA

CITY           SKY/WX    TMP DP  RH WIND       PRES   REMARKS
GRAND CANYON   PTCLDY    29  22  75 E3        30.43S
WILLIAMS       PTCLDY    39  27  60 SE7       30.41R WCI  34
PRESCOTT       PTCLDY    39  28  64 SW3       30.34R
FLAGSTAFF      CLEAR     32  24  72 CALM      30.43S
PAYSON         CLEAR     55  23  28 MISG      30.34R
PAGE           MOCLDY    44  23  43 SW6       30.38R
$$

AZZ009>014-017-221400-
NORTHEAST ARIZONA

CITY           SKY/WX    TMP DP  RH WIND       PRES   REMARKS
WINSLOW        MOCLDY    29  12  49 CALM      30.41R
SAINT JOHNS    MOCLDY    33  19  56 S5        30.40R WCI  29
WINDOW ROCK    MOCLDY    26  17  68 CALM      30.44R
SHOW LOW       PTCLDY    32  14  47 CALM      30.43S
$$

AZZ540-542>544-546-548-221400-
GREATER PHOENIX AREA

CITY           SKY/WX    TMP DP  RH WIND       PRES   REMARKS
PHOENIX        PTCLDY    57  35  43 E7        30.09S
BUCKEYE        CLEAR     57  23  26 N3        30.10R
GLENDALE       PTCLDY    54  34  47 CALM      30.12
DEER VALLEY    CLEAR     58  29  33 CALM      30.11R
SCOTTSDALE     CLEAR     57  33  40 CALM      30.13R
MESA-FALCON    CLEAR     55  30  38 CALM      30.12
MESA-GATEWAY   PTCLDY    50  25  37 E5        30.12S
CHANDLER       CLEAR     50  34  53 E7        30.11
$$

AZZ539-553-221400-
SOUTHWEST MARICOPA COUNTY AND PINAL COUNTY

CITY           SKY/WX    TMP DP  RH WIND       PRES   REMARKS
CASA GRANDE    NOT AVBL
$$

AZZ503-504-507>509-221400-
SOUTHEAST ARIZONA

CITY           SKY/WX    TMP DP  RH WIND       PRES   REMARKS
TUCSON         PTCLDY    57  20  23 SE8       30.16R
RYAN FIELD     CLEAR     55  23  28 E10       30.15
NOGALES        CLEAR     56  19  23 NE12      30.20R
DOUGLAS        CLEAR     52  14  22 E3        30.27R
SAFFORD        CLEAR     54  17  23 E9        30.28R
$$

AZZ532-221400-
SOUTHWEST ARIZONA

CITY           SKY/WX    TMP DP  RH WIND       PRES   REMARKS
YUMA           CLEAR     64  24  21 NE5       30.05R
$$

CAZ041-043-047-048-061-525>527-560>570-221400-
SOUTHERN CALIFORNIA

CITY           SKY/WX    TMP DP  RH WIND       PRES   REMARKS
DOWNTOWN L.A.  CLEAR     68  32  26 NE3       30.01S
L.A. AIRPORT   CLEAR     68  35  29 NE6       30.02S
SAN DIEGO      CLEAR     62  43  49 CALM      30.03S
BURBANK        CLEAR     62  39  42 N5        30.04S
ONTARIO        PTCLDY    62  38  40 CALM      30.05F
RIVERSIDE      CLEAR     62  39  42 E7        30.07R
PALM SPRINGS   CLEAR     67  35  30 NW9       30.10R
EL CENTRO NAS  CLEAR     56  24  29 SW3       30.06S
IMPERIAL       CLEAR     56  31  38 SW3       30.04R
BLYTHE         CLEAR     60  16  18 W7        30.09S
$$

NVZ020-UTZ003-221400-
SOUTHERN NEVADA-UTAH

CITY           SKY/WX    TMP DP  RH WIND       PRES   REMARKS
LAS VEGAS      PTCLDY    55  33  43 W3        30.25R
SALT LAKE CITY PTCLDY    45  39  79 SE9       30.39S
$$

NMZ009-TXZ055-221400-
NEW MEXICO-WEST TEXAS

CITY           SKY/WX    TMP DP  RH WIND       PRES   REMARKS
ALBUQUERQUE    CLOUDY    38  27  64 N9        30.40R WCI  31
EL PASO        CLEAR     46  26  45 E6        30.37R
$$


........................KEY........................
SKY/WX - SKY CONDITION/WEATHER
TMP    - TEMPERATURE IN FAHRENHEIT
DP     - DEW POINT IN FAHRENHEIT
RH     - RELATIVE HUMIDITY IN PERCENT
WIND   - DIRECTION AND SPEED IN MILES PER HOUR (MPH)
VRB    - VARIABLE WIND DIRECTION
PRES   - MEAN SEA LEVEL PRESSURE IN INCHES OF MERCURY
         F - FALLING PRESSURE   R - RISING PRESSURE
         S - STEADY PRESSURE
VSB    - VISIBILITY IN MILES
HX     - HEAT INDEX IN FAHRENHEIT
WCI    - WIND CHILL INDEX IN FAHRENHEIT
TC     - TEMPERATURE IN CELSIUS WHICH IS ALSO KNOWN AS
         TEMPERATURE IN CENTIGRADE
AFB    - AIR FORCE BASE
         LUKE AFB IS LUKE AIR FORCE BASE
         DAVIS-MONTHAN IS DAVIS-MONTHAN AIR FORCE BASE
NAS    - NAVAL AIR STATION
         EL CENTRO NAS IS EL CENTRO NAVAL AIR STATION
N/A    - NOT AVAILABLE





USA.gov is the U.S. government's official web portal to all federal, state and local government web resources and services.